Simultaneous Nadir Overpasses (SNOs) Predictions

Prediction of SNOs between GOES-17 and METOP-B Satellite Orbit:

Table of predicted SNOs for the next 14.0 days since TLE Epoch: 4/9/2022
Index Date Time (GOES-17) GOES-17 Lat,Lon METOP-B Lat,Lon Distance(km) Time Diff (sec)
1 04/09/2022 06:47:28 -0.05,-137.21 -0.43,-138.94 197.50 80
2 04/10/2022 06:24:09 -0.04,-137.20 0.67,-133.94 371.16 80
3 04/11/2022 18:43:01 0.04,-137.19 0.33,-138.51 149.59 80
4 04/12/2022 18:25:02 0.04,-137.19 -0.78,-133.51 418.94 80
5 04/14/2022 06:44:02 -0.04,-137.18 -0.23,-138.11 105.53 80
6 04/15/2022 06:20:43 -0.04,-137.17 0.88,-133.11 462.68 80
7 04/16/2022 18:39:34 0.04,-137.15 0.17,-137.67 59.07 80
8 04/19/2022 06:40:35 -0.04,-137.12 -0.07,-137.27 17.22 80
9 04/21/2022 18:38:47 0.03,-137.06 -0.01,-136.83 26.05 80
